Location: Newark
(48.1333°N, 17.1000°E)
Time: 20:56:37
(UTC+00:00)

N. Korean satellite - Pass Details

Date: 29 January 2020
Orbit: 456 x 505 km, 97.2° (Epoch: 26 February)

Event Time Altitude Azimuth Distance (km) Brightness Sun altitude
Rises 16:11:36 0° 183° (S) 2,458 10.5 -4.8°
Reaches altitude 10° 16:13:43 10° 192° (SSW) 1,592 9.7 -5.1°
Maximum altitude 16:16:56 38° 262° (W) 715 8.2 -5.6°
Drops below altitude 10° 16:20:11 10° 332° (NNW) 1,618 9.3 -6.1°
Sets 16:22:21 0° 341° (NNW) 2,505 10.2 -6.5°
